^^
Station Historical Data
 
Daily Summary for February 25, 2021 Units:  English    Metric   Both
Daily Weekly Monthly Yearly
  Current: High: Low: Average:
Temperature: 27.4 °F 33.7 °F 20 °F 27.1 °F
Dew Point: 19.6 °F 28 °F 13.3 °F 20 °F
Humidity: 72% 81% 67% 74%
Wind Speed: 2mph 10mph 0mph 4.1mph
Wind Gust: 2mph 15mph - -
WindWest - - West
Pressure: 30.30 in 30.31 in 30.14 in -
Precipitation: 0.00 in      
 
 
Tabular Data for February 25, 2021
Time Temperature Dew Point Pressure Wind Wind Speed Wind Gust Humidity Rainfall Rate (Hourly) solar
00:00 27 °F 21.1 °F 30.14 in WNW 4 mph 4 mph 78% 0.00 in 0 W/m2
00:05 26.9 °F 21 °F 30.14 in NNW 4 mph 4 mph 78% 0.00 in 0 W/m2
00:10 26.9 °F 21.3 °F 30.14 in NW 4 mph 4 mph 79% 0.00 in 0 W/m2
00:15 26.7 °F 21.1 °F 30.14 in West 3 mph 7 mph 79% 0.00 in 0 W/m2
00:20 26.6 °F 21 °F 30.15 in NW 4 mph 8 mph 79% 0.00 in 0 W/m2
00:25 26.5 °F 20.6 °F 30.15 in WNW 4 mph 8 mph 78% 0.00 in 0 W/m2
00:30 26.4 °F 20.5 °F 30.16 in NW 4 mph 5 mph 78% 0.00 in 0 W/m2
00:35 26.3 °F 20.1 °F 30.16 in NW 4 mph 5 mph 77% 0.00 in 0 W/m2
00:40 26.2 °F 20 °F 30.16 in NNW 4 mph 8 mph 77% 0.00 in 0 W/m2
00:45 26.2 °F 20 °F 30.17 in NW 4 mph 8 mph 77% 0.00 in 0 W/m2
00:50 26.1 °F 19.9 °F 30.17 in NW 4 mph 4 mph 77% 0.00 in 0 W/m2
00:55 26.1 °F 19.9 °F 30.17 in NNW 4 mph 4 mph 77% 0.00 in 0 W/m2
01:00 26 °F 19.8 °F 30.17 in NW 4 mph 4 mph 77% 0.00 in 0 W/m2
01:05 26 °F 20.1 °F 30.17 in NW 3 mph 4 mph 78% 0.00 in 0 W/m2
01:10 25.9 °F 20 °F 30.17 in NW 3 mph 3 mph 78% 0.00 in 0 W/m2
01:15 25.9 °F 20 °F 30.17 in NW 3 mph 3 mph 78% 0.00 in 0 W/m2
01:20 25.9 °F 20 °F 30.18 in NW 2 mph 2 mph 78% 0.00 in 0 W/m2
01:25 25.8 °F 19.9 °F 30.18 in WNW 2 mph 4 mph 78% 0.00 in 0 W/m2
01:30 25.6 °F 19.7 °F 30.18 in WNW 2 mph 2 mph 78% 0.00 in 0 W/m2
01:35 25.6 °F 19.7 °F 30.18 in NW 2 mph 2 mph 78% 0.00 in 0 W/m2
01:40 25.5 °F 19.6 °F 30.19 in WNW 2 mph 5 mph 78% 0.00 in 0 W/m2
01:45 25.4 °F 19.5 °F 30.19 in NW 3 mph 5 mph 78% 0.00 in 0 W/m2
01:50 25.2 °F 19.3 °F 30.19 in NW 3 mph 4 mph 78% 0.00 in 0 W/m2
01:55 25 °F 19.1 °F 30.19 in WNW 4 mph 4 mph 78% 0.00 in 0 W/m2
02:00 24.8 °F 18.6 °F 30.19 in NW 5 mph 5 mph 77% 0.00 in 0 W/m2
02:05 24.8 °F 18.6 °F 30.20 in NW 4 mph 5 mph 77% 0.00 in 0 W/m2
02:10 24.7 °F 18.2 °F 30.20 in WNW 4 mph 4 mph 76% 0.00 in 0 W/m2
02:15 24.7 °F 18.5 °F 30.20 in WNW 5 mph 5 mph 77% 0.00 in 0 W/m2
02:20 24.5 °F 18.3 °F 30.20 in WNW 4 mph 4 mph 77% 0.00 in 0 W/m2
02:25 24.4 °F 17.9 °F 30.20 in West 4 mph 4 mph 76% 0.00 in 0 W/m2
02:30 24.3 °F 17.8 °F 30.20 in NW 3 mph 4 mph 76% 0.00 in 0 W/m2
02:35 24.2 °F 17.7 °F 30.20 in WNW 3 mph 4 mph 76% 0.00 in 0 W/m2
02:40 24.1 °F 17.9 °F 30.21 in West 2 mph 3 mph 77% 0.00 in 0 W/m2
02:45 24 °F 17.8 °F 30.21 in WNW 3 mph 3 mph 77% 0.00 in 0 W/m2
02:50 23.8 °F 17.6 °F 30.21 in West 4 mph 4 mph 77% 0.00 in 0 W/m2
02:55 23.7 °F 17.2 °F 30.21 in NNW 4 mph 4 mph 76% 0.00 in 0 W/m2
03:00 23.6 °F 17.1 °F 30.21 in NW 4 mph 4 mph 76% 0.00 in 0 W/m2
03:05 23.5 °F 17 °F 30.21 in NNW 4 mph 5 mph 76% 0.00 in 0 W/m2
03:10 23.5 °F 17 °F 30.21 in WNW 4 mph 4 mph 76% 0.00 in 0 W/m2
03:15 23.5 °F 16.7 °F 30.22 in West 4 mph 4 mph 75% 0.00 in 0 W/m2
03:20 23.4 °F 16.6 °F 30.22 in NW 3 mph 3 mph 75% 0.00 in 0 W/m2
03:25 23.4 °F 16.6 °F 30.21 in NW 3 mph 3 mph 75% 0.00 in 0 W/m2
03:30 23.4 °F 16.6 °F 30.22 in West 3 mph 3 mph 75% 0.00 in 0 W/m2
03:35 23.3 °F 16.5 °F 30.22 in NW 3 mph 4 mph 75% 0.00 in 0 W/m2
03:40 23.3 °F 16.5 °F 30.22 in WNW 3 mph 3 mph 75% 0.00 in 0 W/m2
03:45 23.2 °F 16.4 °F 30.22 in NW 3 mph 5 mph 75% 0.00 in 0 W/m2
03:50 23.1 °F 16.4 °F 30.22 in WNW 3 mph 3 mph 75% 0.00 in 0 W/m2
03:55 23 °F 16.6 °F 30.22 in NW 3 mph 3 mph 76% 0.00 in 0 W/m2
04:00 23 °F 16.6 °F 30.22 in WNW 3 mph 3 mph 76% 0.00 in 0 W/m2
04:05 22.8 °F 16.4 °F 30.22 in NW 3 mph 3 mph 76% 0.00 in 0 W/m2
04:10 22.8 °F 16.1 °F 30.22 in NNW 3 mph 6 mph 75% 0.00 in 0 W/m2
04:15 22.7 °F 16 °F 30.22 in West 3 mph 6 mph 75% 0.00 in 0 W/m2
04:20 22.7 °F 16 °F 30.22 in NW 3 mph 5 mph 75% 0.00 in 0 W/m2
04:25 22.7 °F 16 °F 30.22 in WNW 2 mph 5 mph 75% 0.00 in 0 W/m2
04:30 22.6 °F 15.9 °F 30.22 in WNW 2 mph 2 mph 75% 0.00 in 0 W/m2
04:35 22.5 °F 15.8 °F 30.22 in NW 2 mph 2 mph 75% 0.00 in 0 W/m2
04:40 22.4 °F 15.7 °F 30.22 in WNW 2 mph 3 mph 75% 0.00 in 0 W/m2
04:45 22.3 °F 15.6 °F 30.22 in WNW 2 mph 3 mph 75% 0.00 in 0 W/m2
04:50 22.3 °F 15.6 °F 30.23 in NW 2 mph 2 mph 75% 0.00 in 0 W/m2
04:55 22.2 °F 15.5 °F 30.23 in WNW 2 mph 2 mph 75% 0.00 in 0 W/m2
05:00 22.1 °F 15.4 °F 30.23 in WNW 1 mph 3 mph 75% 0.00 in 0 W/m2
05:05 22 °F 15.3 °F 30.23 in WNW 1 mph 3 mph 75% 0.00 in 0 W/m2
05:10 21.8 °F 15.4 °F 30.23 in WNW 1 mph 1 mph 76% 0.00 in 0 W/m2
05:15 21.8 °F 15.4 °F 30.23 in WNW 1 mph 1 mph 76% 0.00 in 0 W/m2
05:20 21.7 °F 15.3 °F 30.23 in WNW 1 mph 1 mph 76% 0.00 in 0 W/m2
05:25 21.5 °F 15.1 °F 30.23 in WNW 1 mph 2 mph 76% 0.00 in 0 W/m2
05:30 21.5 °F 15.4 °F 30.23 in WNW 1 mph 1 mph 77% 0.00 in 0 W/m2
05:35 21.3 °F 15.2 °F 30.24 in WNW 1 mph 2 mph 77% 0.00 in 0 W/m2
05:40 21.3 °F 15.2 °F 30.24 in WNW 1 mph 1 mph 77% 0.00 in 0 W/m2
05:45 21.2 °F 15.1 °F 30.24 in WNW 1 mph 1 mph 77% 0.00 in 0 W/m2
05:50 21 °F 14.9 °F 30.24 in WNW 1 mph 1 mph 77% 0.00 in 0 W/m2
05:55 20.9 °F 15.1 °F 30.24 in WNW 1 mph 1 mph 78% 0.00 in 0 W/m2
06:00 20.8 °F 15 °F 30.24 in WNW 1 mph 2 mph 78% 0.00 in 0 W/m2
06:05 20.7 °F 14.9 °F 30.24 in WNW 2 mph 2 mph 78% 0.00 in 0 W/m2
06:10 20.7 °F 14.9 °F 30.24 in WNW 1 mph 1 mph 78% 0.00 in 0 W/m2
06:15 20.6 °F 14.8 °F 30.25 in WNW 1 mph 2 mph 78% 0.00 in 0 W/m2
06:20 20.5 °F 14.7 °F 30.25 in WNW 1 mph 1 mph 78% 0.00 in 0 W/m2
06:25 20.4 °F 14.6 °F 30.24 in WNW 1 mph 1 mph 78% 0.00 in 0 W/m2
06:30 20.3 °F 14.5 °F 30.24 in WNW 1 mph 3 mph 78% 0.00 in 0 W/m2
06:35 20.3 °F 14.2 °F 30.25 in WNW 1 mph 3 mph 77% 0.00 in 0 W/m2
06:40 20.3 °F 14.2 °F 30.25 in NW 2 mph 2 mph 77% 0.00 in 0 W/m2
06:45 20.2 °F 14.1 °F 30.25 in NW 2 mph 2 mph 77% 0.00 in 0 W/m2
06:50 20.2 °F 13.8 °F 30.24 in WNW 1 mph 1 mph 76% 0.00 in 0 W/m2
06:55 20.2 °F 13.8 °F 30.24 in WNW 1 mph 2 mph 76% 0.00 in 0 W/m2
07:00 20.2 °F 14.1 °F 30.24 in NW 1 mph 1 mph 77% 0.00 in 0 W/m2
07:05 20.1 °F 13.7 °F 30.24 in WNW 1 mph 1 mph 76% 0.00 in 0 W/m2
07:10 20.1 °F 13.7 °F 30.24 in WNW 1 mph 3 mph 76% 0.00 in 0 W/m2
07:15 20 °F 13.6 °F 30.24 in WNW 1 mph 3 mph 76% 0.00 in 5 W/m2
07:20 20 °F 13.6 °F 30.24 in WNW 1 mph 1 mph 76% 0.00 in 7 W/m2
07:25 20 °F 13.3 °F 30.24 in WNW 1 mph 2 mph 75% 0.00 in 11 W/m2
07:30 20 °F 13.3 °F 30.24 in WNW 2 mph 2 mph 75% 0.00 in 14 W/m2
07:35 20.1 °F 13.7 °F 30.25 in WNW 2 mph 3 mph 76% 0.00 in 23 W/m2
07:40 20.1 °F 13.7 °F 30.24 in WNW 2 mph 2 mph 76% 0.00 in 37 W/m2
07:45 20.2 °F 14.1 °F 30.24 in West 2 mph 3 mph 77% 0.00 in 46 W/m2
07:50 20.3 °F 14.2 °F 30.25 in West 2 mph 3 mph 77% 0.00 in 60 W/m2
07:55 20.4 °F 14.3 °F 30.25 in WNW 2 mph 3 mph 77% 0.00 in 63 W/m2
08:00 20.5 °F 14.4 °F 30.25 in NW 2 mph 2 mph 77% 0.00 in 95 W/m2
08:05 20.7 °F 14.3 °F 30.25 in WNW 2 mph 2 mph 76% 0.00 in 93 W/m2
08:10 20.8 °F 14.4 °F 30.26 in WNW 2 mph 2 mph 76% 0.00 in 130 W/m2
08:15 21 °F 14.6 °F 30.26 in WNW 2 mph 2 mph 76% 0.00 in 104 W/m2
08:20 21.2 °F 14.5 °F 30.26 in WNW 2 mph 2 mph 75% 0.00 in 135 W/m2
08:25 21.3 °F 14.6 °F 30.27 in WNW 2 mph 2 mph 75% 0.00 in 153 W/m2
08:30 21.5 °F 14.8 °F 30.27 in NW 3 mph 3 mph 75% 0.00 in 174 W/m2
08:35 21.6 °F 14.6 °F 30.27 in NW 2 mph 7 mph 74% 0.00 in 144 W/m2
08:40 22 °F 14.7 °F 30.27 in West 2 mph 2 mph 73% 0.00 in 162 W/m2
08:45 22.8 °F 15.1 °F 30.28 in NNW 3 mph 5 mph 72% 0.00 in 155 W/m2
08:50 23.2 °F 15.2 °F 30.28 in WNW 3 mph 3 mph 71% 0.00 in 206 W/m2
08:55 23.6 °F 15.6 °F 30.28 in NW 3 mph 4 mph 71% 0.00 in 183 W/m2
09:00 23.7 °F 15.3 °F 30.28 in NNW 3 mph 3 mph 70% 0.00 in 165 W/m2
09:05 23.7 °F 15.3 °F 30.28 in West 3 mph 3 mph 70% 0.00 in 267 W/m2
09:10 24.1 °F 15.7 °F 30.28 in NW 3 mph 5 mph 70% 0.00 in 104 W/m2
09:15 24.7 °F 16 °F 30.28 in WSW 3 mph 5 mph 69% 0.00 in 185 W/m2
09:20 25 °F 16.3 °F 30.29 in West 3 mph 4 mph 69% 0.00 in 171 W/m2
09:25 24.7 °F 16 °F 30.29 in West 3 mph 8 mph 69% 0.00 in 179 W/m2
09:30 24.6 °F 16.2 °F 30.30 in WNW 4 mph 4 mph 70% 0.00 in 148 W/m2
09:35 24.4 °F 16.7 °F 30.30 in West 4 mph 4 mph 72% 0.00 in 134 W/m2
09:40 24.7 °F 17.9 °F 30.29 in WSW 3 mph 5 mph 75% 0.00 in 272 W/m2
09:45 25.4 °F 18.6 °F 30.30 in West 2 mph 5 mph 75% 0.00 in 188 W/m2
09:50 25.6 °F 18.8 °F 30.30 in WSW 2 mph 5 mph 75% 0.00 in 260 W/m2
09:55 25.8 °F 19 °F 30.30 in SSW 3 mph 5 mph 75% 0.00 in 357 W/m2
10:00 25.7 °F 18.9 °F 30.30 in SW 4 mph 4 mph 75% 0.00 in 274 W/m2
10:05 25.6 °F 19.4 °F 30.30 in West 3 mph 6 mph 77% 0.00 in 276 W/m2
10:10 25.9 °F 19.7 °F 30.30 in SW 4 mph 4 mph 77% 0.00 in 425 W/m2
10:15 26.1 °F 19.6 °F 30.30 in West 4 mph 4 mph 76% 0.00 in 346 W/m2
10:20 25.8 °F 19.6 °F 30.30 in SW 4 mph 4 mph 77% 0.00 in 190 W/m2
10:25 25.1 °F 19.2 °F 30.30 in SW 3 mph 4 mph 78% 0.00 in 134 W/m2
10:30 25.3 °F 19.7 °F 30.31 in West 4 mph 4 mph 79% 0.00 in 232 W/m2
10:35 25.5 °F 19.9 °F 30.31 in WSW 4 mph 4 mph 79% 0.00 in 288 W/m2
10:40 25.7 °F 20.4 °F 30.31 in SSW 4 mph 6 mph 80% 0.00 in 390 W/m2
10:45 25.8 °F 20.5 °F 30.30 in WSW 5 mph 6 mph 80% 0.00 in 278 W/m2
10:50 25.5 °F 20.2 °F 30.30 in SW 4 mph 5 mph 80% 0.00 in 204 W/m2
10:55 26.1 °F 20.8 °F 30.31 in WSW 3 mph 8 mph 80% 0.00 in 548 W/m2
11:00 26.2 °F 20.6 °F 30.30 in SSW 4 mph 4 mph 79% 0.00 in 381 W/m2
11:05 26.2 °F 20.6 °F 30.31 in SW 5 mph 5 mph 79% 0.00 in 359 W/m2
11:10 26.3 °F 20.4 °F 30.31 in WSW 5 mph 5 mph 78% 0.00 in 271 W/m2
11:15 26.4 °F 20.5 °F 30.30 in SW 5 mph 5 mph 78% 0.00 in 432 W/m2
11:25 26.6 °F 19.7 °F 30.29 in South 5 mph 5 mph 75% 0.00 in 323 W/m2
11:30 26.3 °F 20.1 °F 30.28 in NNE 5 mph 5 mph 77% 0.00 in 156 W/m2
11:35 26.6 °F 19.7 °F 30.29 in SW 4 mph 5 mph 75% 0.00 in 582 W/m2
11:40 26.9 °F 20 °F 30.29 in SSW 5 mph 6 mph 75% 0.00 in 355 W/m2
11:45 27.2 °F 20 °F 30.29 in South 6 mph 8 mph 74% 0.00 in 301 W/m2
11:50 27.4 °F 19.2 °F 30.28 in SSW 6 mph 6 mph 71% 0.00 in 301 W/m2
11:55 27.5 °F 20 °F 30.28 in SW 6 mph 6 mph 73% 0.00 in 290 W/m2
12:00 27.4 °F 19.6 °F 30.28 in SW 7 mph 9 mph 72% 0.00 in 239 W/m2
12:05 27.5 °F 20 °F 30.28 in SW 8 mph 9 mph 73% 0.00 in 220 W/m2
12:10 27.4 °F 19.6 °F 30.28 in SSW 8 mph 8 mph 72% 0.00 in 211 W/m2
12:15 27.4 °F 19.9 °F 30.28 in SW 8 mph 8 mph 73% 0.00 in 223 W/m2
12:20 27.6 °F 20.7 °F 30.27 in SW 6 mph 6 mph 75% 0.00 in 272 W/m2
12:25 28 °F 21.7 °F 30.27 in ENE 3 mph 6 mph 77% 0.00 in 341 W/m2
12:30 28.3 °F 20.7 °F 30.27 in SSE 3 mph 3 mph 73% 0.00 in 396 W/m2
12:35 28.7 °F 21.5 °F 30.27 in SSW 4 mph 6 mph 74% 0.00 in 420 W/m2
12:40 28.9 °F 20.3 °F 30.26 in SSW 5 mph 7 mph 70% 0.00 in 438 W/m2
12:45 29.5 °F 21.6 °F 30.26 in SW 7 mph 7 mph 72% 0.00 in 469 W/m2
12:50 30 °F 22.4 °F 30.26 in SW 6 mph 6 mph 73% 0.00 in 446 W/m2
12:55 29.8 °F 21.5 °F 30.26 in SW 6 mph 7 mph 71% 0.00 in 483 W/m2
13:00 30 °F 22.1 °F 30.25 in SSW 7 mph 7 mph 72% 0.00 in 455 W/m2
13:05 29.8 °F 21.5 °F 30.25 in SW 7 mph 8 mph 71% 0.00 in 355 W/m2
13:10 30.3 °F 21.7 °F 30.24 in SW 8 mph 8 mph 70% 0.00 in 680 W/m2
13:15 30.4 °F 21.1 °F 30.24 in SW 9 mph 9 mph 68% 0.00 in 803 W/m2
13:20 30.4 °F 21.1 °F 30.23 in SSW 9 mph 9 mph 68% 0.00 in 464 W/m2
13:25 30.5 °F 21.9 °F 30.23 in SW 9 mph 10 mph 70% 0.00 in 490 W/m2
13:30 30.8 °F 21.8 °F 30.23 in SW 8 mph 8 mph 69% 0.00 in 846 W/m2
13:35 30.9 °F 23.3 °F 30.23 in NNE 6 mph 8 mph 73% 0.00 in 503 W/m2
13:40 31.2 °F 23.5 °F 30.22 in South 4 mph 10 mph 73% 0.00 in 489 W/m2
13:45 31.3 °F 24.3 °F 30.22 in East 4 mph 10 mph 75% 0.00 in 454 W/m2
13:50 31.5 °F 23.8 °F 30.22 in North 4 mph 4 mph 73% 0.00 in 388 W/m2
13:55 31.2 °F 23.5 °F 30.22 in ESE 4 mph 4 mph 73% 0.00 in 399 W/m2
14:00 31.3 °F 23.3 °F 30.22 in SSW 5 mph 8 mph 72% 0.00 in 448 W/m2
14:05 31.6 °F 22.2 °F 30.22 in SW 7 mph 8 mph 68% 0.00 in 432 W/m2
14:10 31.8 °F 23.1 °F 30.22 in SW 9 mph 9 mph 70% 0.00 in 441 W/m2
14:15 31.9 °F 23.6 °F 30.22 in SSW 9 mph 9 mph 71% 0.00 in 362 W/m2
14:20 31.7 °F 23 °F 30.21 in SW 10 mph 12 mph 70% 0.00 in 343 W/m2
14:25 31.9 °F 23.6 °F 30.22 in WSW 10 mph 12 mph 71% 0.00 in 406 W/m2
14:30 32 °F 23.3 °F 30.22 in SSW 10 mph 11 mph 70% 0.00 in 427 W/m2
14:35 32.3 °F 23.9 °F 30.21 in SSW 10 mph 11 mph 71% 0.00 in 454 W/m2
14:40 32.5 °F 23.8 °F 30.21 in SSE 10 mph 10 mph 70% 0.00 in 487 W/m2
14:45 32.6 °F 23.9 °F 30.21 in SSW 10 mph 12 mph 70% 0.00 in 431 W/m2
14:50 32.2 °F 23.8 °F 30.20 in SSW 9 mph 9 mph 71% 0.00 in 290 W/m2
14:55 32.2 °F 23.5 °F 30.20 in SSE 9 mph 9 mph 70% 0.00 in 290 W/m2
15:00 32.1 °F 24.1 °F 30.20 in SW 9 mph 10 mph 72% 0.00 in 258 W/m2
15:05 32.3 °F 23.9 °F 30.20 in SSE 9 mph 12 mph 71% 0.00 in 279 W/m2
15:10 32.6 °F 24.2 °F 30.20 in SSW 9 mph 9 mph 71% 0.00 in 325 W/m2
15:15 32.6 °F 24.9 °F 30.20 in South 9 mph 9 mph 73% 0.00 in 302 W/m2
15:20 33.2 °F 25.1 °F 30.20 in SW 9 mph 9 mph 72% 0.00 in 364 W/m2
15:25 33.4 °F 25.3 °F 30.20 in South 10 mph 10 mph 72% 0.00 in 294 W/m2
15:30 33.1 °F 25.4 °F 30.19 in SSE 10 mph 15 mph 73% 0.00 in 526 W/m2
15:35 33.3 °F 25.2 °F 30.19 in SSW 10 mph 15 mph 72% 0.00 in 522 W/m2
15:40 33.7 °F 25.6 °F 30.19 in SSW 10 mph 13 mph 72% 0.00 in 570 W/m2
15:50 33.3 °F 25.6 °F 30.19 in SSW 10 mph 10 mph 73% 0.00 in 218 W/m2
15:55 33.5 °F 25.1 °F 30.19 in South 10 mph 10 mph 71% 0.00 in 236 W/m2
16:00 33.6 °F 25.5 °F 30.19 in SW 10 mph 10 mph 72% 0.00 in 214 W/m2
16:05 33.5 °F 25.8 °F 30.19 in SSW 10 mph 10 mph 73% 0.00 in 135 W/m2
16:10 33.4 °F 26 °F 30.19 in SSE 10 mph 11 mph 74% 0.00 in 121 W/m2
16:15 33.4 °F 26 °F 30.19 in South 10 mph 11 mph 74% 0.00 in 104 W/m2
16:20 33.4 °F 26.3 °F 30.19 in SSW 9 mph 9 mph 75% 0.00 in 132 W/m2
16:25 33.5 °F 26.1 °F 30.19 in SSW 9 mph 10 mph 74% 0.00 in 130 W/m2
16:30 33.7 °F 26.6 °F 30.20 in SW 9 mph 9 mph 75% 0.00 in 105 W/m2
16:35 33.6 °F 26.8 °F 30.19 in SSW 8 mph 9 mph 76% 0.00 in 86 W/m2
16:40 33.7 °F 27.3 °F 30.19 in WSW 6 mph 7 mph 77% 0.00 in 72 W/m2
16:45 33.5 °F 27.4 °F 30.19 in SW 6 mph 7 mph 78% 0.00 in 67 W/m2
16:50 33.4 °F 27.3 °F 30.19 in SW 7 mph 8 mph 78% 0.00 in 70 W/m2
16:55 33.4 °F 27.6 °F 30.19 in SSW 7 mph 8 mph 79% 0.00 in 83 W/m2
17:00 33.5 °F 27.7 °F 30.20 in West 5 mph 5 mph 79% 0.00 in 176 W/m2
17:05 33.4 °F 27.9 °F 30.20 in SW 5 mph 8 mph 80% 0.00 in 199 W/m2
17:10 33.3 °F 27.8 °F 30.20 in SW 5 mph 6 mph 80% 0.00 in 125 W/m2
17:15 33.2 °F 28 °F 30.20 in WSW 5 mph 6 mph 81% 0.00 in 214 W/m2
17:20 33.5 °F 27.7 °F 30.20 in West 5 mph 5 mph 79% 0.00 in 137 W/m2
17:30 33.5 °F 27.4 °F 30.20 in WSW 4 mph 4 mph 78% 0.00 in 37 W/m2
17:35 33.3 °F 27.2 °F 30.21 in West 4 mph 8 mph 78% 0.00 in 91 W/m2
17:40 33.3 °F 26.5 °F 30.21 in NW 5 mph 5 mph 76% 0.00 in 32 W/m2
17:45 33.2 °F 26.1 °F 30.21 in WSW 5 mph 5 mph 75% 0.00 in 35 W/m2
17:50 33 °F 25.9 °F 30.21 in West 5 mph 7 mph 75% 0.00 in 25 W/m2
17:55 32.8 °F 25.4 °F 30.21 in West 5 mph 7 mph 74% 0.00 in 23 W/m2
18:00 32.5 °F 24.8 °F 30.22 in NNW 5 mph 5 mph 73% 0.00 in 23 W/m2
18:05 32.5 °F 24.8 °F 30.22 in WNW 4 mph 6 mph 73% 0.00 in 14 W/m2
18:10 32.2 °F 24.5 °F 30.22 in NW 4 mph 4 mph 73% 0.00 in 9 W/m2
18:15 32 °F 24.6 °F 30.22 in WNW 4 mph 4 mph 74% 0.00 in 7 W/m2
18:20 31.9 °F 24.6 °F 30.22 in West 4 mph 7 mph 74% 0.00 in 5 W/m2
18:25 31.8 °F 24.1 °F 30.23 in NNW 5 mph 7 mph 73% 0.00 in 0 W/m2
18:35 32.1 °F 23.8 °F 30.23 in NW 5 mph 5 mph 71% 0.00 in 0 W/m2
18:40 32.3 °F 23.6 °F 30.23 in NW 6 mph 6 mph 70% 0.00 in 0 W/m2
18:45 32.5 °F 23.8 °F 30.24 in WNW 6 mph 6 mph 70% 0.00 in 0 W/m2
18:50 32.8 °F 23.4 °F 30.24 in North 6 mph 6 mph 68% 0.00 in 0 W/m2
18:55 33 °F 23.2 °F 30.24 in NW 6 mph 6 mph 67% 0.00 in 0 W/m2
19:00 33 °F 23.2 °F 30.25 in WSW 6 mph 8 mph 67% 0.00 in 0 W/m2
19:05 32.9 °F 23.1 °F 30.25 in WNW 6 mph 8 mph 67% 0.00 in 0 W/m2
19:10 32.8 °F 23.4 °F 30.25 in NW 6 mph 6 mph 68% 0.00 in 0 W/m2
19:15 32.8 °F 23.4 °F 30.25 in NW 5 mph 6 mph 68% 0.00 in 0 W/m2
19:20 32.8 °F 23.4 °F 30.25 in NW 5 mph 5 mph 68% 0.00 in 0 W/m2
19:25 32.6 °F 23.2 °F 30.25 in NW 5 mph 5 mph 68% 0.00 in 0 W/m2
19:30 32.5 °F 23.1 °F 30.26 in WNW 5 mph 5 mph 68% 0.00 in 0 W/m2
19:35 32.2 °F 23.2 °F 30.26 in NNW 5 mph 5 mph 69% 0.00 in 0 W/m2
19:40 32 °F 23 °F 30.26 in WNW 5 mph 5 mph 69% 0.00 in 0 W/m2
19:45 31.6 °F 22.9 °F 30.26 in NNW 4 mph 5 mph 70% 0.00 in 0 W/m2
19:50 31.3 °F 22.6 °F 30.26 in NNW 4 mph 5 mph 70% 0.00 in 0 W/m2
19:55 30.9 °F 22.6 °F 30.26 in West 4 mph 5 mph 71% 0.00 in 0 W/m2
20:00 30.5 °F 22.5 °F 30.27 in NW 3 mph 8 mph 72% 0.00 in 0 W/m2
20:05 30.3 °F 22.4 °F 30.27 in NW 4 mph 8 mph 72% 0.00 in 0 W/m2
20:10 29.9 °F 22.3 °F 30.27 in NW 4 mph 5 mph 73% 0.00 in 0 W/m2
20:15 29.5 °F 22.2 °F 30.27 in NNW 4 mph 6 mph 74% 0.00 in 0 W/m2
20:20 29.2 °F 22.3 °F 30.27 in NW 4 mph 4 mph 75% 0.00 in 0 W/m2
20:25 29.2 °F 21.9 °F 30.27 in West 4 mph 4 mph 74% 0.00 in 0 W/m2
20:30 29.4 °F 21.8 °F 30.27 in NNW 4 mph 4 mph 73% 0.00 in 0 W/m2
20:35 29.6 °F 21.7 °F 30.27 in NNW 4 mph 4 mph 72% 0.00 in 0 W/m2
20:40 29.7 °F 21.4 °F 30.27 in NNW 4 mph 6 mph 71% 0.00 in 0 W/m2
20:45 29.7 °F 21.4 °F 30.27 in NNW 4 mph 6 mph 71% 0.00 in 0 W/m2
20:50 29.7 °F 21.1 °F 30.27 in West 4 mph 4 mph 70% 0.00 in 0 W/m2
20:55 29.7 °F 20.8 °F 30.28 in NW 3 mph 4 mph 69% 0.00 in 0 W/m2
21:00 29.7 °F 20.8 °F 30.28 in NNW 2 mph 5 mph 69% 0.00 in 0 W/m2
21:05 29.7 °F 20.8 °F 30.28 in NW 2 mph 5 mph 69% 0.00 in 0 W/m2
21:10 29.7 °F 20.8 °F 30.28 in NW 2 mph 2 mph 69% 0.00 in 0 W/m2
21:15 29 °F 20.8 °F 30.28 in WNW 2 mph 2 mph 71% 0.00 in 0 W/m2
21:20 28.5 °F 20.6 °F 30.28 in WNW 2 mph 3 mph 72% 0.00 in 0 W/m2
21:25 28.7 °F 20.5 °F 30.28 in West 2 mph 3 mph 71% 0.00 in 0 W/m2
21:30 28.8 °F 20.6 °F 30.28 in WNW 2 mph 2 mph 71% 0.00 in 0 W/m2
21:35 28.9 °F 20.7 °F 30.29 in WNW 1 mph 2 mph 71% 0.00 in 0 W/m2
21:40 27.9 °F 20.4 °F 30.29 in WNW 1 mph 1 mph 73% 0.00 in 0 W/m2
21:45 27 °F 20.4 °F 30.29 in WNW 1 mph 1 mph 76% 0.00 in 0 W/m2
21:50 27.4 °F 20.2 °F 30.29 in Calm     74% 0.00 in 0 W/m2
21:55 26.9 °F 20 °F 30.29 in West 1 mph 1 mph 75% 0.00 in 0 W/m2
22:00 26.6 °F 20.1 °F 30.30 in West 1 mph 1 mph 76% 0.00 in 0 W/m2
22:05 26.8 °F 20.2 °F 30.29 in West 1 mph 3 mph 76% 0.00 in 0 W/m2
22:10 27.2 °F 20.3 °F 30.29 in West 2 mph 2 mph 75% 0.00 in 0 W/m2
22:15 27.2 °F 20 °F 30.29 in West 2 mph 2 mph 74% 0.00 in 0 W/m2
22:20 27.4 °F 20.2 °F 30.29 in West 2 mph 2 mph 74% 0.00 in 0 W/m2
22:25 27.7 °F 20.2 °F 30.29 in West 2 mph 3 mph 73% 0.00 in 0 W/m2
22:30 27.9 °F 20.4 °F 30.29 in West 1 mph 1 mph 73% 0.00 in 0 W/m2
22:35 27.9 °F 20 °F 30.29 in West 1 mph 2 mph 72% 0.00 in 0 W/m2
22:40 27.8 °F 19.9 °F 30.29 in West 1 mph 2 mph 72% 0.00 in 0 W/m2
22:45 27.4 °F 19.6 °F 30.29 in West 2 mph 2 mph 72% 0.00 in 0 W/m2
22:50 27.4 °F 19.6 °F 30.30 in West 2 mph 2 mph 72% 0.00 in 0 W/m2
Sand Point, Michigan, USA
Compliments of Weather Underground - 2 mb